[[{"header":{"parameterUnit":"m.s-1","parameterCategory":1,"la1":30.2991,"la2":30.254,"lo1":-89.0895,"lo2":-89.0444,"dy":0.0017,"dx":0.0017,"nx":28,"ny":28,"refTime":"2025-07-18T09:00:00:Z","depth":0,"parameterNumber":2,"parameterNumberName":"U-component_of_WINDS"},"data":[0,0,0,0,0,0,0,0,0,0,0,0,0,0,0,0,0,0,0,0,0,0,0,0,0,0,0,0,0,0,0,0,0,0,0,0,0,0,0,0,0,0,0,0,0,0,0,0,0,0,0,0,0,0,0,0,0,0,-4.084,-4.0841,0,-4.0898,-4.0898,-4.0899,-4.0945,-4.0945,-4.0946,-4.0946,-4.0999,-4.1,-4.1001,0,0,0,0,0,0,0,0,0,0,0,0,0,-4.0763,-4.0764,-4.084,-4.0841,-4.0842,-4.0898,-4.0898,-4.0899,-4.0945,-4.0945,-4.0946,-4.0947,-4.0999,-4.1,-4.1001,0,0,0,0,0,0,0,0,0,0,0,0,0,-4.0806,-4.0765,-4.084,-4.0871,-4.0875,-4.0898,-4.0899,-4.0899,-4.0945,-4.0945,-4.0946,-4.0947,-4.0998,-4.1,-4.1001,-4.0996,0,0,-4.1006,-4.1006,0,0,0,0,0,0,0,0,-4.0804,-4.0809,-4.0866,-4.0869,-4.0873,-4.0915,-4.0891,-4.0932,-4.0945,-4.0918,-4.0946,-4.0947,-4.097,-4.0974,-4.0983,-4.0998,-4.1001,-4.1006,-4.1007,-4.1007,-4.1008,0,0,0,0,0,0,0,-4.0801,-4.0807,-4.0863,-4.0867,-4.0871,-4.088,-4.0887,-4.0899,-4.0939,-4.092,-4.0924,-4.093,-4.0972,-4.0982,-4.0985,-4.1001,-4.1006,-4.1007,-4.1008,-4.1009,-4.1014,-4.1013,0,0,0,0,0,0,-4.0794,-4.0804,-4.0861,-4.0864,-4.084,-4.0881,-4.0889,-4.0901,-4.0939,-4.0946,-4.093,-4.0932,-4.0979,-4.0983,-4.0987,-4.0982,-4.1007,-4.1009,-4.1009,-4.1014,-4.1013,-4.1013,0,0,0,0,0,0,-4.0792,-4.0798,-4.0859,-4.0835,-4.0844,-4.0882,-4.0895,-4.0901,-4.0911,-4.0946,-4.0953,-4.0932,-4.0979,-4.0985,-4.0993,-4.0984,-4.1009,-4.1011,-4.1015,-4.1014,-4.1013,-4.0972,0,0,0,0,0,0,-4.0789,-4.0797,-4.0797,-4.0835,-4.0845,-4.0866,-4.0894,-4.0902,-4.0914,-4.0918,-4.095,-4.0956,-4.098,-4.0991,-4.0995,-4.0986,-4.1012,-4.1016,-4.1015,-4.1013,-4.0974,-4.0969,-4.0965,0,0,0,0,0,-4.0787,-4.0782,-4.0797,-4.0803,-4.0846,-4.0865,-4.0871,-4.09,-4.0913,-4.0912,-4.0935,-4.0955,-4.0985,-4.0991,-4.0996,-4.0988,-4.1017,-4.1015,-4.1013,-4.0976,-4.097,-4.0966,0,0,0,0,0,0,-4.074,-4.0788,-4.0804,-4.0813,-4.0835,-4.0873,-4.0873,-4.0893,-4.0911,-4.0913,-4.0947,-4.0954,-4.0959,-4.0975,-4.0981,-4.0984,-4.1003,-4.1003,-4.0973,-4.0968,-4.0964,-4.0959,-4.1013,0,0,0,0,0,-4.0731,-4.0745,-4.0786,-4.0789,-4.0799,-4.0834,-4.0844,-4.0865,-4.0888,-4.0897,-4.0921,-4.0941,-4.0954,-4.0963,-4.0977,-4.0977,-4.0984,-4.0974,-4.097,-4.0966,-4.0964,-4.0963,-4.0959,-4.1007,-4.1007,-4.1007,0,0,-4.0712,-4.074,-4.0746,-4.078,-4.08,-4.0811,-4.0841,-4.0853,-4.0861,-4.0898,-4.0908,-4.0926,-4.0951,-4.0955,-4.0957,-4.0968,-4.0953,-4.0964,-4.0961,-4.0961,-4.0961,-4.0957,-4.0953,-4.1006,-4.1006,-4.1006,0,0,-4.0682,-4.0706,-4.0711,-4.073,-4.0761,-4.0784,-4.0785,-4.0821,-4.0834,-4.0845,-4.0873,-4.0883,-4.0906,-4.0922,-4.0933,-4.0911,-4.0929,-4.0915,-4.0891,-4.089,-4.0886,-4.0883,-4.0872,-4.0868,-4.0913,-4.0913,-4.0913,0,-4.0654,-4.0675,-4.071,-4.072,-4.0733,-4.077,-4.0773,-4.079,-4.0822,-4.0829,-4.0841,-4.0871,-4.0891,-4.0898,-4.0893,-4.0901,-4.0902,-4.091,-4.0884,-4.0881,-4.0879,-4.0869,-4.0865,-4.0911,-4.0911,-4.0911,-4.0911,0,-4.0637,-4.0651,-4.0651,-4.0684,-4.0697,-4.0704,-4.0738,-4.0747,-4.0767,-4.0788,-4.0797,-4.0822,-4.0842,-4.0846,-4.0865,-4.0856,-4.0861,-4.0878,-4.0898,-4.0871,-4.0863,-4.086,-4.0908,-4.0908,-4.0909,-4.091,0,0,-4.0578,-4.0631,-4.063,-4.0645,-4.0682,-4.0692,-4.0699,-4.0721,-4.0727,-4.0748,-4.0754,-4.0773,-4.0789,-4.0802,-4.0823,-4.0823,-4.0801,-4.084,-4.0841,-4.083,-4.0789,-4.0774,-4.077,-4.0815,-4.0814,-4.0814,-4.0786,0,-4.0552,-4.057,-4.0602,-4.0609,-4.0621,-4.0656,-4.0663,-4.0684,-4.0705,-4.0716,-4.0738,-4.0751,-4.0772,-4.078,-4.0781,-4.0803,-4.0792,-4.0806,-4.0817,-4.0817,-4.0807,-4.0766,-4.075,-4.0723,-4.0784,-4.0783,-4.0783,0,-4.0525,-4.0546,-4.0554,-4.059,-4.0596,-4.0601,-4.0623,-4.0635,-4.0659,-4.0674,-4.0689,-4.0713,-4.072,-4.074,-4.075,-4.0758,-4.0765,-4.0776,-4.0776,-4.0775,-4.0796,-4.0762,-4.0715,-4.071,-4.0778,-4.0779,-4.0779,0,-4.0478,-4.0508,-4.0517,-4.0529,-4.0571,-4.0574,-4.0591,-4.0617,-4.0627,-4.0646,-4.0653,-4.0671,-4.0681,-4.0694,-4.0721,-4.0733,-4.0726,-4.0749,-4.0736,-4.0735,-4.0731,-4.073,-4.0682,-4.074,-4.074,-4.074,-4.074,0,-4.0444,-4.0447,-4.0497,-4.0501,-4.0505,-4.0542,-4.0544,-4.0564,-4.0587,-4.0594,-4.0626,-4.0632,-4.067,-4.0679,-4.0701,-4.0704,-4.0709,-4.0719,-4.0724,-4.0714,-4.0713,-4.0717,-4.0718,-4.0739,-4.0739,-4.0739,-4.0739,0,-4.0391,-4.0425,-4.0436,-4.0476,-4.0486,-4.0487,-4.0519,-4.0524,-4.0548,-4.0557,-4.0561,-4.0596,-4.0609,-4.0639,-4.0659,-4.0674,-4.067,-4.0682,-4.0662,-4.0665,-4.065,-4.065,-4.06,-4.0595,-4.0658,-4.0658,-4.0657,0,-4.0366,-4.037,-4.041,-4.0419,-4.0436,-4.0449,-4.0461,-4.0496,-4.0507,-4.0535,-4.0536,-4.0553,-4.0567,-4.0586,-4.0612,-4.0628,-4.0637,-4.0619,-4.064,-4.063,-4.0634,-4.0632,-4.0631,-4.0614,-4.0613,-4.0612,-4.0612,0,-4.0318,-4.0335,-4.0351,-4.0374,-4.0387,-4.0406,-4.0426,-4.0431,-4.0471,-4.048,-4.0495,-4.0507,-4.0529,-4.0543,-4.0563,-4.0579,-4.06,-4.0606,-4.0603,-4.0591,-4.0579,-4.0583,-4.0647,-4.0606,-4.0606,-4.0607,-4.0607,-4.0607,-4.0276,-4.028,-4.031,-4.0327,-4.0347,-4.0365,-4.0371,-4.0396,-4.041,-4.0432,-4.0452,-4.0464,-4.0488,-4.0517,-4.0531,-4.054,-4.0551,-4.0548,-4.0547,-4.0544,-4.0539,-4.058,-4.0544,-4.0544,-4.0544,-4.0545,-4.0545,0,-4.0227,-4.0248,-4.0264,-4.0292,-4.0305,-4.0328,-4.0352,-4.036,-4.0372,-4.0393,-4.0408,-4.0424,-4.0439,-4.0466,-4.0483,-4.0484,-4.0494,-4.0487,-4.0485,-4.0488,-4.053,-4.0529,-4.0478,-4.0478,-4.0478,-4.0478,-4.0478,-4.0478,-4.0202,-4.021,-4.023,-4.0247,-4.0268,-4.0282,-4.0294,-4.031,-4.0327,-4.0345,-4.0358,-4.0377,-4.04,-4.0419,-4.0432,-4.044,-4.0443,-4.0432,-4.0442,-4.0479,-4.0486,-4.0491,-4.0491,-4.0433,-4.0433,-4.04,-4.0399,-4.0399]},{"header":{"parameterUnit":"m.s-1","parameterCategory":1,"la1":30.2991,"la2":30.254,"lo1":-89.0895,"lo2":-89.0444,"dy":0.0017,"dx":0.0017,"nx":28,"ny":28,"refTime":"2025-07-18T09:00:00:Z","depth":0,"parameterNumber":3,"parameterNumberName":"V-component_of_WINDS"},"data":[0,0,0,0,0,0,0,0,0,0,0,0,0,0,0,0,0,0,0,0,0,0,0,0,0,0,0,0,0,0,0,0,0,0,0,0,0,0,0,0,0,0,0,0,0,0,0,0,0,0,0,0,0,0,0,0,0,0,6.7124,6.7127,0,6.7402,6.7405,6.7408,6.7414,6.741,6.7407,6.7404,6.768,6.769,6.7701,0,0,0,0,0,0,0,0,0,0,0,0,0,6.659,6.66,6.7124,6.7127,6.7131,6.7402,6.7405,6.7409,6.7414,6.741,6.7406,6.7402,6.7677,6.7689,6.7702,0,0,0,0,0,0,0,0,0,0,0,0,0,6.684,6.6603,6.7123,6.7166,6.7173,6.7401,6.7406,6.741,6.7415,6.741,6.7405,6.74,6.7673,6.7688,6.7704,6.7905,0,0,6.7752,6.7759,0,0,0,0,0,0,0,0,6.6826,6.686,6.7157,6.7164,6.7172,6.7368,6.7319,6.7576,6.7417,6.7323,6.7404,6.7398,6.758,6.7603,6.7666,6.7918,6.7929,6.7753,6.7763,6.777,6.7774,0,0,0,0,0,0,0,6.6809,6.6848,6.7234,6.7161,6.717,6.7169,6.7199,6.7367,6.7477,6.7331,6.7332,6.7365,6.7583,6.7651,6.7673,6.7933,6.7753,6.7767,6.7777,6.7783,6.8363,6.8369,0,0,0,0,0,0,6.6784,6.6834,6.7225,6.7242,6.6983,6.7183,6.7217,6.731,6.7475,6.7495,6.7369,6.7364,6.7626,6.7654,6.7683,6.7929,6.777,6.7785,6.7794,6.8358,6.8365,6.8371,0,0,0,0,0,0,6.6773,6.6819,6.7214,6.7038,6.7089,6.7198,6.7303,6.7318,6.7386,6.7504,6.7523,6.7419,6.7624,6.766,6.785,6.7938,6.7792,6.7806,6.8351,6.836,6.8368,6.8422,0,0,0,0,0,0,6.6757,6.6815,6.6894,6.704,6.7098,6.7379,6.7309,6.7328,6.7415,6.7411,6.7556,6.7575,6.7622,6.7826,6.7866,6.7957,6.7818,6.8343,6.8355,6.8365,6.8413,6.8432,6.8448,0,0,0,0,0,6.6738,6.6896,6.6898,6.6945,6.72,6.7384,6.7417,6.747,6.7422,6.7501,6.7577,6.757,6.7923,6.7846,6.789,6.7988,6.8338,6.8351,6.8364,6.8405,6.8428,6.8447,0,0,0,0,0,0,6.6754,6.6916,6.692,6.713,6.7244,6.7384,6.7486,6.7493,6.762,6.7611,6.7669,6.7702,6.7891,6.7958,6.787,6.8191,6.8124,6.8147,6.814,6.8163,6.818,6.8158,6.7832,0,0,0,0,0,6.6782,6.6921,6.7054,6.7227,6.7284,6.7376,6.7458,6.749,6.7608,6.7655,6.7745,6.7858,6.7994,6.8082,6.8214,6.8423,6.8454,6.8512,6.853,6.8544,6.8562,6.8677,6.8704,6.8415,6.8415,6.8414,0,0,6.6841,6.6947,6.703,6.7233,6.7324,6.7464,6.7415,6.7565,6.7669,6.7677,6.7862,6.7932,6.8062,6.8263,6.8355,6.8325,6.8649,6.8561,6.8571,6.8582,6.8693,6.8721,6.8745,6.8424,6.8422,6.8421,0,0,6.702,6.7115,6.727,6.7364,6.7504,6.7564,6.7601,6.7743,6.779,6.7978,6.7987,6.811,6.8343,6.8436,6.8513,6.873,6.8728,6.8771,6.8861,6.8973,6.8996,6.9016,6.9092,6.9119,6.8789,6.8789,6.879,0,6.7075,6.7289,6.7347,6.7499,6.7587,6.7604,6.776,6.7847,6.8022,6.8081,6.8046,6.834,6.8429,6.8651,6.8704,6.8767,6.8809,6.8754,6.8988,6.9009,6.9029,6.9102,6.9131,6.8794,6.8793,6.8793,6.8792,0,6.7349,6.7497,6.7604,6.7777,6.7877,6.803,6.8109,6.8203,6.8227,6.829,6.8481,6.8589,6.8743,6.8798,6.8821,6.9024,6.9,6.8976,6.8909,6.906,6.913,6.9158,6.88,6.8798,6.8797,6.8796,0,0,6.7543,6.7748,6.7786,6.7865,6.8022,6.8136,6.8289,6.8443,6.8522,6.8643,6.8771,6.897,6.8949,6.9037,6.9071,6.9169,6.9333,6.9133,6.9137,6.9165,6.9561,6.9577,6.9609,6.9334,6.9339,6.9344,6.955,0,6.7738,6.8013,6.8071,6.8307,6.8444,6.8464,6.8597,6.8706,6.877,6.8894,6.8963,6.9102,6.9065,6.9118,6.9216,6.9292,6.9413,6.9278,6.9451,6.9457,6.9416,6.9646,6.9663,6.9852,6.9578,6.9582,6.9586,0,6.8001,6.8132,6.8383,6.8523,6.8583,6.8702,6.8848,6.8967,6.9091,6.913,6.923,6.9254,6.9412,6.934,6.9557,6.9464,6.9539,6.9587,6.9595,6.9612,6.9529,6.9666,6.9914,6.9942,6.9629,6.9626,6.9623,0,6.8116,6.8354,6.8536,6.8602,6.8771,6.8854,6.8927,6.9047,6.9136,6.9263,6.9321,6.9464,6.9541,6.965,6.9712,6.9654,6.9924,6.9857,6.9959,6.9957,7.0013,7.0008,7.0274,7.0064,7.0063,7.0063,7.0062,0,6.8326,6.8479,6.859,6.8701,6.8872,6.8937,6.9103,6.9176,6.9283,6.9407,6.9432,6.9547,6.9622,6.9748,6.9797,6.9968,7.0003,7.0038,7.0049,7.0035,7.003,7.0083,7.007,7.007,7.0069,7.0067,7.0066,0,6.8482,6.8563,6.8762,6.8906,6.8946,6.9066,6.9188,6.9296,6.9361,6.9518,6.9558,6.9659,6.9808,6.9881,7.0066,7.0098,7.0292,7.0296,7.0251,7.0255,7.0352,7.0341,7.0659,7.0704,7.0466,7.0468,7.047,0,6.861,6.8728,6.8887,6.8973,6.905,6.9188,6.928,6.9349,6.9443,6.9595,6.9684,6.9835,6.9959,7.0197,7.0285,7.0426,7.0432,7.0534,7.0453,7.0435,7.0432,7.0423,7.0435,7.0547,7.0549,7.0551,7.0553,0,6.8828,6.8863,6.8996,6.9144,6.9254,6.9373,6.949,6.9558,6.9645,6.9749,6.9904,7.0001,7.0191,7.034,7.0488,7.0561,7.0571,7.0578,7.0609,7.0595,7.0564,7.0581,7.0289,7.057,7.0568,7.0567,7.0566,7.0565,6.8973,6.9079,6.9208,6.9356,6.9452,6.9561,6.9669,6.975,6.9881,7.0043,7.0075,7.0238,7.036,7.0561,7.0639,7.0766,7.0743,7.0788,7.0799,7.0809,7.0813,7.0546,7.0794,7.0793,7.0793,7.0792,7.0792,0,6.9191,6.9276,6.9412,6.9576,6.9692,6.9695,6.9825,6.992,7.0065,7.018,7.0303,7.048,7.0626,7.0727,7.0874,7.0956,7.0965,7.0992,7.0986,7.1002,7.0826,7.0784,7.0983,7.0983,7.0983,7.0983,7.0983,7.0983,6.9319,6.9499,6.9549,6.9776,6.9859,7.0022,7.0096,7.0196,7.0288,7.0486,7.0608,7.0674,7.0783,7.0938,7.1071,7.1097,7.1149,7.1178,7.1203,7.1035,7.1015,7.0996,7.0956,7.1189,7.1189,7.1368,7.137,7.1371]}]]